Regional Weather Roundup
Issued by NWS Goodland, KS

Home | Current Version | Previous Version | Graphics & Text | Print | Product List | Glossary On
Versions: 1 2 3 4 5 6 7 8 9 10 11 12 13 14 15 16 17 18 19 20 21 22 23 24 25 26 27 28 29 30 31 32 33 34 35 36 37 38 39 40 41 42 43 44 45 46 47 48 49 50
489
ASUS43 KGLD 141459
RWRGLD

GOODLAND FORECAST AREA HOURLY WEATHER ROUNDUP
NATIONAL WEATHER SERVICE GOODLAND KS
800 AM MST SUN FEB 14 2016

...OFFICIAL OBSERVATIONS...

CITY           SKY/WX    TMP DP  RH WIND       PRES   REMARKS
GOODLAND KS    CLOUDY    32  25  75 SW14      29.98R
HILL CITY KS   SUNNY     36  28  73 SW8       29.96S
IMPERIAL NEB   CLOUDY    32  23  69 NW7       29.92F
MCCOOK NEB     SUNNY     33  26  75 W10       29.93R
AKRON CO       CLOUDY    30  23  75 S7        29.93S
BURLINGTON CO  CLOUDY    32  24  72 SW9       29.98F
LIMON CO       CLOUDY    25  22  88 CALM      29.98S
$$

...UNOFFICIAL OBSERVATIONS...

CITY           SKY/WX    TMP DP  RH WIND       PRES   REMARKS
COLBY KS       SUNNY     34  28  80 NW8       29.96F
GOVE KS          N/A     36  32  85 MISG        N/A
LENORA KS        N/A     35  32  89 MISG        N/A
NORTON KS      SUNNY     34  25  69 W10       29.92R
SHARON SPRINGS   N/A     32  28  84 SW10        N/A
KIT CARSON CO    N/A     28  24  86 MISG        N/A
YUMA CO          N/A     30  26  84 CALM        N/A
$$




USA.gov is the U.S. government's official web portal to all federal, state and local government web resources and services.